Time,TemperatureF,DewpointF,PressureIn,WindDirection,WindDirectionDegrees,WindSpeedMPH,WindSpeedGustMPH,Humidity,HourlyPrecipIn,Conditions,Clouds,dailyrainin,SoftwareType,DateUTC
2013-05-03 00:03:00,45.2,38.7,30.35,North,-999,0.0,0.0,78,0.00,,,0.00,ow4j130224,2013-05-03 07:03:00,
2013-05-03 00:08:00,45.1,38.6,30.35,North,-999,0.0,0.0,78,0.00,,,0.00,ow4j130224,2013-05-03 07:08:00,
2013-05-03 00:13:00,44.9,38.5,30.35,North,-999,0.0,0.0,78,0.00,,,0.00,ow4j130224,2013-05-03 07:13:00,
2013-05-03 00:18:00,44.6,38.5,30.35,North,-999,0.0,0.0,79,0.00,,,0.00,ow4j130224,2013-05-03 07:18:00,
2013-05-03 00:23:00,44.5,38.7,30.35,North,-999,0.0,0.8,80,0.00,,,0.00,ow4j130224,2013-05-03 07:23:00,
2013-05-03 00:28:00,44.5,38.8,30.35,North,-999,0.7,3.3,80,0.00,,,0.00,ow4j130224,2013-05-03 07:28:00,
2013-05-03 00:33:00,44.0,38.4,30.36,North,-999,0.0,0.0,81,0.00,,,0.00,ow4j130224,2013-05-03 07:33:00,
2013-05-03 00:38:00,43.4,38.3,30.36,North,-999,0.0,0.0,82,0.00,,,0.00,ow4j130224,2013-05-03 07:38:00,
2013-05-03 00:43:00,43.2,38.4,30.36,North,-999,0.0,0.0,83,0.00,,,0.00,ow4j130224,2013-05-03 07:43:00,
2013-05-03 00:48:00,43.4,39.0,30.36,North,-999,0.8,3.3,84,0.00,,,0.00,ow4j130224,2013-05-03 07:48:00,
2013-05-03 00:53:00,43.9,39.4,30.35,North,-999,0.0,0.0,84,0.00,,,0.00,ow4j130224,2013-05-03 07:53:00,
2013-05-03 00:58:00,44.3,39.5,30.35,North,-999,0.0,0.0,83,0.00,,,0.00,ow4j130224,2013-05-03 07:58:00,
2013-05-03 01:03:00,44.4,39.5,30.35,North,-999,0.0,0.0,83,0.00,,,0.00,ow4j130224,2013-05-03 08:03:00,
2013-05-03 01:08:00,43.9,39.2,30.35,North,-999,0.0,0.0,83,0.00,,,0.00,ow4j130224,2013-05-03 08:08:00,
2013-05-03 01:13:00,43.0,38.5,30.35,North,-999,0.0,0.0,84,0.00,,,0.00,ow4j130224,2013-05-03 08:13:00,
2013-05-03 01:18:00,42.5,38.2,30.35,North,-999,0.0,0.0,85,0.00,,,0.00,ow4j130224,2013-05-03 08:18:00,
2013-05-03 01:23:00,42.1,38.1,30.35,North,-999,0.0,0.0,86,0.00,,,0.00,ow4j130224,2013-05-03 08:23:00,
2013-05-03 01:28:00,42.0,38.2,30.35,North,-999,0.0,0.0,86,0.00,,,0.00,ow4j130224,2013-05-03 08:28:00,
2013-05-03 01:33:00,41.7,38.1,30.35,North,-999,0.0,0.0,87,0.00,,,0.00,ow4j130224,2013-05-03 08:33:00,
2013-05-03 01:38:00,41.4,38.0,30.35,North,-999,0.0,0.0,88,0.00,,,0.00,ow4j130224,2013-05-03 08:38:00,
2013-05-03 01:43:00,41.5,38.3,30.35,North,-999,0.0,0.0,88,0.00,,,0.00,ow4j130224,2013-05-03 08:43:00,
2013-05-03 01:48:00,41.4,38.4,30.35,North,-999,0.0,0.0,89,0.00,,,0.00,ow4j130224,2013-05-03 08:48:00,
2013-05-03 01:53:00,41.8,39.0,30.36,North,-999,0.0,0.0,89,0.00,,,0.00,ow4j130224,2013-05-03 08:53:00,
2013-05-03 01:58:00,42.2,39.5,30.36,North,-999,0.0,0.0,90,0.00,,,0.00,ow4j130224,2013-05-03 08:58:00,
2013-05-03 02:03:00,42.2,39.5,30.36,North,-999,0.0,0.0,90,0.00,,,0.00,ow4j130224,2013-05-03 09:03:00,
2013-05-03 02:08:00,42.1,39.4,30.35,North,-999,0.0,0.0,90,0.00,,,0.00,ow4j130224,2013-05-03 09:08:00,
2013-05-03 02:13:00,42.1,39.4,30.35,North,-999,0.0,0.0,90,0.00,,,0.00,ow4j130224,2013-05-03 09:13:00,
2013-05-03 02:18:00,42.4,39.7,30.35,North,-999,0.0,0.0,90,0.00,,,0.00,ow4j130224,2013-05-03 09:18:00,
2013-05-03 02:23:00,43.1,40.5,30.35,North,-999,0.0,0.0,90,0.00,,,0.00,ow4j130224,2013-05-03 09:23:00,
2013-05-03 02:28:00,44.1,41.0,30.35,North,-999,0.0,0.0,89,0.00,,,0.00,ow4j130224,2013-05-03 09:28:00,
2013-05-03 02:33:00,44.7,41.0,30.35,North,-999,0.0,0.0,87,0.00,,,0.00,ow4j130224,2013-05-03 09:33:00,
2013-05-03 02:38:00,45.0,41.0,30.35,North,-999,0.0,0.0,86,0.00,,,0.00,ow4j130224,2013-05-03 09:38:00,
2013-05-03 02:43:00,45.2,40.9,30.34,North,-999,0.0,0.0,85,0.00,,,0.00,ow4j130224,2013-05-03 09:43:00,
2013-05-03 02:48:00,45.4,40.9,30.34,North,-999,0.0,0.0,84,0.00,,,0.00,ow4j130224,2013-05-03 09:48:00,
2013-05-03 02:53:00,45.3,40.6,30.34,North,-999,0.0,0.0,83,0.00,,,0.00,ow4j130224,2013-05-03 09:53:00,
2013-05-03 02:58:00,44.8,40.0,30.34,North,-999,0.0,0.0,83,0.00,,,0.00,ow4j130224,2013-05-03 09:58:00,
2013-05-03 03:03:00,44.5,40.1,30.34,North,-999,0.0,0.0,85,0.00,,,0.00,ow4j130224,2013-05-03 10:03:00,
2013-05-03 03:08:00,44.6,40.6,30.35,North,-999,0.0,0.0,86,0.00,,,0.00,ow4j130224,2013-05-03 10:08:00,
2013-05-03 03:13:00,45.1,40.9,30.35,North,-999,0.0,0.0,85,0.00,,,0.00,ow4j130224,2013-05-03 10:13:00,
2013-05-03 03:19:00,45.3,40.7,30.35,North,-999,0.0,0.0,84,0.00,,,0.00,ow4j130224,2013-05-03 10:19:00,
2013-05-03 03:24:00,44.6,39.7,30.35,North,-999,0.0,0.0,83,0.00,,,0.00,ow4j130224,2013-05-03 10:24:00,
2013-05-03 03:29:00,43.3,38.6,30.35,North,-999,0.0,0.0,83,0.00,,,0.00,ow4j130224,2013-05-03 10:29:00,
2013-05-03 03:34:00,42.1,38.0,30.36,North,-999,0.0,0.0,85,0.00,,,0.00,ow4j130224,2013-05-03 10:34:00,
2013-05-03 03:39:00,41.4,37.7,30.36,North,-999,0.0,0.0,87,0.00,,,0.00,ow4j130224,2013-05-03 10:39:00,
2013-05-03 03:44:00,41.3,38.1,30.36,North,-999,0.0,0.0,88,0.00,,,0.00,ow4j130224,2013-05-03 10:44:00,
2013-05-03 03:49:00,41.7,39.0,30.36,North,-999,0.0,0.0,90,0.00,,,0.00,ow4j130224,2013-05-03 10:49:00,
2013-05-03 03:54:00,42.2,39.7,30.36,North,-999,0.0,0.0,91,0.00,,,0.00,ow4j130224,2013-05-03 10:54:00,
2013-05-03 03:59:00,42.3,39.4,30.35,North,-999,0.0,0.0,90,0.00,,,0.00,ow4j130224,2013-05-03 10:59:00,
2013-05-03 04:04:00,41.6,38.6,30.36,North,-999,0.0,0.0,89,0.00,,,0.00,ow4j130224,2013-05-03 11:04:00,
2013-05-03 04:09:00,40.9,37.8,30.36,North,-999,0.0,0.0,89,0.00,,,0.00,ow4j130224,2013-05-03 11:09:00,
2013-05-03 04:14:00,39.9,37.0,30.36,North,-999,0.0,0.0,89,0.00,,,0.00,ow4j130224,2013-05-03 11:14:00,
2013-05-03 04:19:00,39.6,36.9,30.36,North,-999,0.0,0.0,90,0.00,,,0.00,ow4j130224,2013-05-03 11:19:00,
2013-05-03 04:24:00,40.5,38.1,30.36,North,-999,0.0,0.0,91,0.00,,,0.00,ow4j130224,2013-05-03 11:24:00,
2013-05-03 04:29:00,40.9,38.6,30.36,North,-999,0.0,0.0,92,0.00,,,0.00,ow4j130224,2013-05-03 11:29:00,
2013-05-03 04:34:00,41.7,39.7,30.36,North,-999,0.0,0.0,92,0.00,,,0.00,ow4j130224,2013-05-03 11:34:00,
2013-05-03 04:39:00,42.5,40.5,30.36,North,-999,0.0,0.0,92,0.00,,,0.00,ow4j130224,2013-05-03 11:39:00,
2013-05-03 04:44:00,43.4,40.9,30.36,North,-999,0.0,0.0,91,0.00,,,0.00,ow4j130224,2013-05-03 11:44:00,
2013-05-03 04:49:00,43.8,40.7,30.36,North,-999,0.0,0.0,89,0.00,,,0.00,ow4j130224,2013-05-03 11:49:00,
2013-05-03 04:54:00,44.1,40.5,30.36,North,-999,0.0,0.0,87,0.00,,,0.00,ow4j130224,2013-05-03 11:54:00,
2013-05-03 04:59:00,44.6,40.6,30.36,North,-999,0.0,0.0,86,0.00,,,0.00,ow4j130224,2013-05-03 11:59:00,
2013-05-03 05:04:00,45.0,40.7,30.36,North,-999,0.0,0.0,85,0.00,,,0.00,ow4j130224,2013-05-03 12:04:00,
2013-05-03 05:09:00,45.0,40.5,30.36,North,-999,0.0,0.0,84,0.00,,,0.00,ow4j130224,2013-05-03 12:09:00,
2013-05-03 05:14:00,44.9,40.4,30.36,North,-999,0.0,0.0,84,0.00,,,0.00,ow4j130224,2013-05-03 12:14:00,
2013-05-03 05:19:00,44.4,40.0,30.36,North,-999,0.0,0.0,84,0.00,,,0.00,ow4j130224,2013-05-03 12:19:00,
2013-05-03 05:24:00,43.4,38.9,30.36,North,-999,0.0,0.0,84,0.00,,,0.00,ow4j130224,2013-05-03 12:24:00,
2013-05-03 05:29:00,42.5,38.7,30.36,North,-999,0.0,0.0,86,0.00,,,0.00,ow4j130224,2013-05-03 12:29:00,
2013-05-03 05:34:00,42.5,39.3,30.36,North,-999,0.0,0.0,88,0.00,,,0.00,ow4j130224,2013-05-03 12:34:00,
2013-05-03 05:39:00,43.0,39.9,30.36,North,-999,0.0,0.0,89,0.00,,,0.00,ow4j130224,2013-05-03 12:39:00,
2013-05-03 05:44:00,44.0,41.0,30.36,North,-999,0.0,0.0,89,0.00,,,0.00,ow4j130224,2013-05-03 12:44:00,
2013-05-03 05:49:00,44.5,41.2,30.36,North,-999,0.0,0.0,88,0.00,,,0.00,ow4j130224,2013-05-03 12:49:00,
2013-05-03 05:54:00,44.0,40.3,30.36,North,-999,0.0,0.0,87,0.00,,,0.00,ow4j130224,2013-05-03 12:54:00,
2013-05-03 05:59:00,43.4,39.6,30.36,North,-999,0.0,0.0,86,0.00,,,0.00,ow4j130224,2013-05-03 12:59:00,
2013-05-03 06:04:00,43.3,39.7,30.35,North,-999,0.0,0.0,87,0.00,,,0.00,ow4j130224,2013-05-03 13:04:00,
2013-05-03 06:09:00,43.5,40.1,30.35,North,-999,0.0,0.0,88,0.00,,,0.00,ow4j130224,2013-05-03 13:09:00,
2013-05-03 06:14:00,44.0,40.7,30.35,North,-999,0.0,0.0,88,0.00,,,0.00,ow4j130224,2013-05-03 13:14:00,
2013-05-03 06:19:00,44.3,41.0,30.35,North,-999,0.0,0.0,88,0.00,,,0.00,ow4j130224,2013-05-03 13:19:00,
2013-05-03 06:24:00,44.4,40.6,30.35,North,-999,0.0,0.0,87,0.00,,,0.00,ow4j130224,2013-05-03 13:24:00,
2013-05-03 06:29:00,44.6,40.7,30.35,North,-999,0.0,0.0,86,0.00,,,0.00,ow4j130224,2013-05-03 13:29:00,
2013-05-03 06:34:00,44.4,40.4,30.35,North,-999,0.0,0.0,86,0.00,,,0.00,ow4j130224,2013-05-03 13:34:00,
2013-05-03 06:39:00,44.0,39.9,30.35,North,-999,0.4,3.3,86,0.00,,,0.00,ow4j130224,2013-05-03 13:39:00,
2013-05-03 06:44:00,43.5,39.6,30.35,North,-999,0.0,0.0,86,0.00,,,0.00,ow4j130224,2013-05-03 13:44:00,
2013-05-03 06:49:00,42.8,39.2,30.35,North,-999,0.0,0.0,87,0.00,,,0.00,ow4j130224,2013-05-03 13:49:00,
2013-05-03 06:54:00,43.2,39.9,30.35,North,-999,0.0,0.0,88,0.00,,,0.00,ow4j130224,2013-05-03 13:54:00,
2013-05-03 06:59:00,43.7,40.5,30.35,North,-999,0.0,0.0,88,0.00,,,0.00,ow4j130224,2013-05-03 13:59:00,
2013-05-03 07:04:00,43.7,40.4,30.35,North,-999,0.0,0.0,88,0.00,,,0.00,ow4j130224,2013-05-03 14:04:00,
2013-05-03 07:09:00,43.6,40.2,30.35,North,-999,0.0,0.0,88,0.00,,,0.00,ow4j130224,2013-05-03 14:09:00,
2013-05-03 07:14:00,44.1,40.6,30.36,North,-999,0.0,0.0,87,0.00,,,0.00,ow4j130224,2013-05-03 14:14:00,
2013-05-03 07:19:00,44.5,41.1,30.36,North,-999,0.0,0.0,88,0.00,,,0.00,ow4j130224,2013-05-03 14:19:00,
2013-05-03 07:24:00,45.5,42.1,30.36,North,-999,0.0,0.0,88,0.00,,,0.00,ow4j130224,2013-05-03 14:24:00,
2013-05-03 07:29:00,46.1,42.2,30.36,North,-999,0.0,0.0,86,0.00,,,0.00,ow4j130224,2013-05-03 14:29:00,
2013-05-03 07:34:00,45.9,41.6,30.36,North,-999,0.0,0.0,85,0.00,,,0.00,ow4j130224,2013-05-03 14:34:00,
2013-05-03 07:39:00,45.8,41.6,30.36,North,-999,0.0,0.0,85,0.00,,,0.00,ow4j130224,2013-05-03 14:39:00,
2013-05-03 07:44:00,46.1,41.9,30.36,North,-999,0.0,0.0,85,0.00,,,0.00,ow4j130224,2013-05-03 14:44:00,
2013-05-03 07:49:00,46.8,42.5,30.36,North,-999,0.0,0.0,85,0.00,,,0.00,ow4j130224,2013-05-03 14:49:00,
2013-05-03 07:54:00,47.5,43.3,30.36,North,-999,0.0,0.0,85,0.00,,,0.00,ow4j130224,2013-05-03 14:54:00,
2013-05-03 07:59:00,48.2,43.9,30.35,North,-999,0.0,0.0,85,0.00,,,0.00,ow4j130224,2013-05-03 14:59:00,
2013-05-03 08:04:00,49.2,44.7,30.35,SE,128,4.0,5.7,84,0.00,,,0.00,ow4j130224,2013-05-03 15:04:00,
2013-05-03 08:09:00,50.0,44.9,30.35,North,-999,0.0,0.0,83,0.00,,,0.00,ow4j130224,2013-05-03 15:09:00,
2013-05-03 08:14:00,50.2,44.6,30.35,North,-999,0.4,3.3,81,0.00,,,0.00,ow4j130224,2013-05-03 15:14:00,
2013-05-03 08:20:00,50.4,43.9,30.36,North,-999,0.0,0.0,78,0.00,,,0.00,ow4j130224,2013-05-03 15:20:00,
2013-05-03 08:25:00,50.9,43.1,30.36,North,-999,0.0,0.8,75,0.00,,,0.00,ow4j130224,2013-05-03 15:25:00,
2013-05-03 08:30:00,51.2,42.8,30.36,North,-999,0.6,1.6,73,0.00,,,0.00,ow4j130224,2013-05-03 15:30:00,
2013-05-03 08:35:00,51.4,42.7,30.36,North,-999,0.3,1.6,72,0.00,,,0.00,ow4j130224,2013-05-03 15:35:00,
2013-05-03 08:40:00,51.4,43.0,30.36,NNW,337,2.1,3.3,73,0.00,,,0.00,ow4j130224,2013-05-03 15:40:00,
2013-05-03 08:45:00,51.3,43.4,30.36,NW,323,2.3,4.1,74,0.00,,,0.00,ow4j130224,2013-05-03 15:45:00,
2013-05-03 08:50:00,52.3,44.3,30.36,North,349,1.8,5.7,74,0.00,,,0.00,ow4j130224,2013-05-03 15:50:00,
2013-05-03 08:55:00,53.0,44.4,30.36,NW,312,3.8,8.2,73,0.00,,,0.00,ow4j130224,2013-05-03 15:55:00,
2013-05-03 09:00:00,51.6,42.7,30.36,NW,323,2.3,5.5,72,0.00,,,0.00,ow4j130224,2013-05-03 16:00:00,
2013-05-03 09:05:00,50.7,41.6,30.36,NW,318,2.4,4.5,71,0.00,,,0.00,ow4j130224,2013-05-03 16:05:00,
2013-05-03 09:10:00,51.7,42.4,30.36,North,-999,0.2,1.6,70,0.00,,,0.00,ow4j130224,2013-05-03 16:10:00,
2013-05-03 09:15:00,52.7,43.0,30.36,North,-999,0.3,1.6,70,0.00,,,0.00,ow4j130224,2013-05-03 16:15:00,
2013-05-03 09:20:00,52.7,43.1,30.36,North,-999,0.7,2.5,70,0.00,,,0.00,ow4j130224,2013-05-03 16:20:00,
2013-05-03 09:25:00,53.2,43.5,30.36,North,-999,0.0,0.0,70,0.00,,,0.00,ow4j130224,2013-05-03 16:25:00,
2013-05-03 09:30:00,53.0,43.0,30.36,North,-999,0.6,4.1,69,0.00,,,0.00,ow4j130224,2013-05-03 16:30:00,
2013-05-03 09:35:00,53.2,41.9,30.36,WNW,301,1.4,4.9,65,0.00,,,0.00,ow4j130224,2013-05-03 16:35:00,
2013-05-03 09:40:00,54.9,42.3,30.35,North,-999,0.5,3.3,62,0.00,,,0.00,ow4j130224,2013-05-03 16:40:00,
2013-05-03 09:45:00,55.5,42.2,30.35,North,-999,0.2,3.3,61,0.00,,,0.00,ow4j130224,2013-05-03 16:45:00,
2013-05-03 09:50:00,54.9,40.7,30.35,North,-999,0.1,0.8,59,0.00,,,0.00,ow4j130224,2013-05-03 16:50:00,
2013-05-03 09:55:00,55.5,40.5,30.35,SW,221,1.7,6.5,57,0.00,,,0.00,ow4j130224,2013-05-03 16:55:00,
2013-05-03 10:00:00,57.8,42.2,30.35,West,269,2.1,8.2,56,0.00,,,0.00,ow4j130224,2013-05-03 17:00:00,
2013-05-03 10:05:00,58.4,42.7,30.34,NW,321,2.5,4.9,56,0.00,,,0.00,ow4j130224,2013-05-03 17:05:00,
2013-05-03 10:10:00,57.9,42.4,30.34,WNW,298,2.8,4.9,56,0.00,,,0.00,ow4j130224,2013-05-03 17:10:00,
2013-05-03 10:15:00,57.7,42.4,30.35,NW,320,1.7,3.3,57,0.00,,,0.00,ow4j130224,2013-05-03 17:15:00,
2013-05-03 10:20:00,58.1,43.1,30.35,NNW,342,2.5,3.3,57,0.00,,,0.00,ow4j130224,2013-05-03 17:20:00,
2013-05-03 10:25:00,58.6,43.3,30.35,NNW,341,2.6,4.9,57,0.00,,,0.00,ow4j130224,2013-05-03 17:25:00,
2013-05-03 10:30:00,58.6,43.0,30.34,NW,321,2.6,7.3,56,0.00,,,0.00,ow4j130224,2013-05-03 17:30:00,
2013-05-03 10:35:00,58.5,42.8,30.34,WNW,292,3.4,11.4,56,0.00,,,0.00,ow4j130224,2013-05-03 17:35:00,
2013-05-03 10:40:00,58.5,43.1,30.34,NNW,332,1.7,3.3,56,0.00,,,0.00,ow4j130224,2013-05-03 17:40:00,
2013-05-03 10:45:00,59.0,43.5,30.34,NW,311,2.1,4.9,56,0.00,,,0.00,ow4j130224,2013-05-03 17:45:00,
2013-05-03 10:50:00,59.3,43.9,30.33,WNW,283,3.1,5.8,57,0.00,,,0.00,ow4j130224,2013-05-03 17:50:00,
2013-05-03 10:55:00,59.4,44.5,30.33,NW,320,4.5,6.5,58,0.00,,,0.00,ow4j130224,2013-05-03 17:55:00,
2013-05-03 11:00:00,59.4,44.7,30.33,WNW,302,2.6,7.4,58,0.00,,,0.00,ow4j130224,2013-05-03 18:00:00,
2013-05-03 11:05:00,59.2,44.7,30.33,NW,325,1.9,3.3,58,0.00,,,0.00,ow4j130224,2013-05-03 18:05:00,
2013-05-03 11:10:00,59.0,44.1,30.33,NW,311,2.6,5.7,58,0.00,,,0.00,ow4j130224,2013-05-03 18:10:00,
2013-05-03 11:15:00,59.2,43.9,30.33,North,-999,0.3,1.6,57,0.00,,,0.00,ow4j130224,2013-05-03 18:15:00,
2013-05-03 11:20:00,59.6,43.9,30.33,WNW,302,1.3,6.5,56,0.00,,,0.00,ow4j130224,2013-05-03 18:20:00,
2013-05-03 11:25:00,59.9,43.9,30.32,NNW,327,3.5,6.5,55,0.00,,,0.00,ow4j130224,2013-05-03 18:25:00,
2013-05-03 11:30:00,59.7,43.9,30.32,NW,315,1.5,6.5,56,0.00,,,0.00,ow4j130224,2013-05-03 18:30:00,
2013-05-03 11:35:00,60.2,44.3,30.32,WNW,300,3.7,10.6,56,0.00,,,0.00,ow4j130224,2013-05-03 18:35:00,
2013-05-03 11:40:00,60.3,44.2,30.32,NW,318,2.2,5.7,55,0.00,,,0.00,ow4j130224,2013-05-03 18:40:00,
2013-05-03 11:45:00,59.5,43.0,30.32,NW,311,4.6,14.5,54,0.00,,,0.00,ow4j130224,2013-05-03 18:45:00,
2013-05-03 11:50:00,59.2,42.7,30.32,West,264,3.4,11.4,54,0.00,,,0.00,ow4j130224,2013-05-03 18:50:00,
2013-05-03 11:55:00,59.1,42.6,30.32,WNW,291,6.5,11.4,54,0.00,,,0.00,ow4j130224,2013-05-03 18:55:00,
2013-05-03 12:00:00,59.3,42.8,30.32,NW,310,4.9,8.2,54,0.00,,,0.00,ow4j130224,2013-05-03 19:00:00,
2013-05-03 12:05:00,60.0,43.8,30.32,NW,314,3.9,8.2,55,0.00,,,0.00,ow4j130224,2013-05-03 19:05:00,
2013-05-03 12:10:00,60.4,44.1,30.32,WNW,286,7.2,16.3,55,0.00,,,0.00,ow4j130224,2013-05-03 19:10:00,
2013-05-03 12:15:00,60.5,44.3,30.32,WNW,285,7.5,13.1,55,0.00,,,0.00,ow4j130224,2013-05-03 19:15:00,
2013-05-03 12:20:00,59.9,43.5,30.32,NW,321,4.8,9.8,55,0.00,,,0.00,ow4j130224,2013-05-03 19:20:00,
2013-05-03 12:25:00,59.8,43.5,30.32,NW,319,4.6,7.4,55,0.00,,,0.00,ow4j130224,2013-05-03 19:25:00,
2013-05-03 12:30:00,60.4,44.4,30.32,NW,317,6.0,9.0,55,0.00,,,0.00,ow4j130224,2013-05-03 19:30:00,
2013-05-03 12:35:00,60.3,44.4,30.32,NW,326,6.1,8.2,56,0.00,,,0.00,ow4j130224,2013-05-03 19:35:00,
2013-05-03 12:40:00,59.5,43.4,30.32,NW,320,5.6,9.0,55,0.00,,,0.00,ow4j130224,2013-05-03 19:40:00,
2013-05-03 12:46:00,59.1,42.7,30.31,WNW,302,5.8,8.3,54,0.00,,,0.00,ow4j130224,2013-05-03 19:46:00,
2013-05-03 12:51:00,59.7,43.3,30.31,NW,323,5.0,10.6,54,0.00,,,0.00,ow4j130224,2013-05-03 19:51:00,
2013-05-03 12:56:00,59.6,43.5,30.31,NW,313,2.7,8.2,55,0.00,,,0.00,ow4j130224,2013-05-03 19:56:00,
2013-05-03 13:01:00,59.5,43.3,30.31,WNW,302,6.3,13.0,55,0.00,,,0.00,ow4j130224,2013-05-03 20:01:00,
2013-05-03 13:06:00,60.4,44.3,30.30,NW,314,3.4,9.0,55,0.00,,,0.00,ow4j130224,2013-05-03 20:06:00,
2013-05-03 13:11:00,61.3,45.3,30.30,NW,315,4.6,13.9,56,0.00,,,0.00,ow4j130224,2013-05-03 20:11:00,
2013-05-03 13:16:00,62.3,46.2,30.30,NNW,334,3.4,6.5,56,0.00,,,0.00,ow4j130224,2013-05-03 20:16:00,
2013-05-03 13:21:00,62.6,46.2,30.30,WNW,283,5.0,9.8,55,0.00,,,0.00,ow4j130224,2013-05-03 20:21:00,
2013-05-03 13:26:00,63.7,47.1,30.29,NW,311,2.6,9.0,55,0.00,,,0.00,ow4j130224,2013-05-03 20:26:00,
2013-05-03 13:31:00,63.8,46.8,30.29,West,275,5.0,10.6,54,0.00,,,0.00,ow4j130224,2013-05-03 20:31:00,
2013-05-03 13:36:00,63.5,46.0,30.29,WNW,287,5.0,8.2,53,0.00,,,0.00,ow4j130224,2013-05-03 20:36:00,
2013-05-03 13:41:00,63.4,46.1,30.29,WNW,303,4.9,10.6,53,0.00,,,0.00,ow4j130224,2013-05-03 20:41:00,
2013-05-03 13:46:00,63.2,46.0,30.29,WNW,298,6.2,9.9,53,0.00,,,0.00,ow4j130224,2013-05-03 20:46:00,
2013-05-03 13:51:00,63.0,45.2,30.29,WNW,300,4.4,7.4,52,0.00,,,0.00,ow4j130224,2013-05-03 20:51:00,
2013-05-03 13:56:00,63.6,45.4,30.28,NW,313,5.2,7.3,51,0.00,,,0.00,ow4j130224,2013-05-03 20:56:00,
2013-05-03 14:01:00,63.9,45.6,30.28,WNW,296,4.8,9.7,51,0.00,,,0.00,ow4j130224,2013-05-03 21:01:00,
2013-05-03 14:06:00,63.8,45.3,30.28,WNW,292,5.2,12.3,51,0.00,,,0.00,ow4j130224,2013-05-03 21:06:00,
2013-05-03 14:11:00,63.6,45.0,30.28,NW,307,4.5,7.4,51,0.00,,,0.00,ow4j130224,2013-05-03 21:11:00,
2013-05-03 14:16:00,63.9,44.8,30.28,WNW,292,7.4,13.9,50,0.00,,,0.00,ow4j130224,2013-05-03 21:16:00,
2013-05-03 14:21:00,64.1,45.0,30.28,WNW,298,6.7,13.0,50,0.00,,,0.00,ow4j130224,2013-05-03 21:21:00,
2013-05-03 14:26:00,64.5,45.0,30.28,WNW,295,8.7,13.1,49,0.00,,,0.00,ow4j130224,2013-05-03 21:26:00,
2013-05-03 14:31:00,64.4,44.8,30.28,WNW,297,7.2,13.1,49,0.00,,,0.00,ow4j130224,2013-05-03 21:31:00,
2013-05-03 14:36:00,64.2,44.7,30.27,WNW,296,8.1,12.3,49,0.00,,,0.00,ow4j130224,2013-05-03 21:36:00,
2013-05-03 14:41:00,64.3,44.4,30.27,NW,306,5.0,8.2,48,0.00,,,0.00,ow4j130224,2013-05-03 21:41:00,
2013-05-03 14:46:00,65.1,44.9,30.27,WNW,298,5.2,10.6,48,0.00,,,0.00,ow4j130224,2013-05-03 21:46:00,
2013-05-03 14:51:00,65.4,44.6,30.27,NW,311,6.2,12.2,47,0.00,,,0.00,ow4j130224,2013-05-03 21:51:00,
2013-05-03 14:56:00,65.3,43.7,30.27,NNW,328,7.4,10.8,45,0.00,,,0.00,ow4j130224,2013-05-03 21:56:00,
2013-05-03 15:01:00,64.9,42.9,30.26,NW,307,8.3,14.7,45,0.00,,,0.00,ow4j130224,2013-05-03 22:01:00,
2013-05-03 15:06:00,64.5,42.2,30.27,NW,313,8.0,14.9,44,0.00,,,0.00,ow4j130224,2013-05-03 22:06:00,
2013-05-03 15:11:00,64.6,41.9,30.27,WNW,300,7.7,11.5,44,0.00,,,0.00,ow4j130224,2013-05-03 22:11:00,
2013-05-03 15:16:00,65.1,41.9,30.27,WNW,301,9.2,13.8,43,0.00,,,0.00,ow4j130224,2013-05-03 22:16:00,
2013-05-03 15:21:00,65.2,42.0,30.27,WNW,302,7.7,14.7,43,0.00,,,0.00,ow4j130224,2013-05-03 22:21:00,
2013-05-03 15:26:00,65.0,41.9,30.27,NW,307,6.4,10.6,43,0.00,,,0.00,ow4j130224,2013-05-03 22:26:00,
2013-05-03 15:31:00,65.4,42.7,30.27,WNW,288,5.1,11.1,44,0.00,,,0.00,ow4j130224,2013-05-03 22:31:00,
2013-05-03 15:36:00,67.7,44.9,30.27,West,275,5.1,12.3,44,0.00,,,0.00,ow4j130224,2013-05-03 22:36:00,
2013-05-03 15:41:00,68.6,45.2,30.27,WNW,297,5.3,12.3,43,0.00,,,0.00,ow4j130224,2013-05-03 22:41:00,
2013-05-03 15:46:00,68.7,45.0,30.26,West,276,8.5,17.9,43,0.00,,,0.00,ow4j130224,2013-05-03 22:46:00,
2013-05-03 15:51:00,67.4,44.1,30.26,West,278,3.2,6.5,43,0.00,,,0.00,ow4j130224,2013-05-03 22:51:00,
2013-05-03 15:56:00,65.7,42.4,30.26,West,266,5.9,9.8,43,0.00,,,0.00,ow4j130224,2013-05-03 22:56:00,
2013-05-03 16:01:00,67.6,43.9,30.25,WSW,257,11.4,18.8,42,0.00,,,0.00,ow4j130224,2013-05-03 23:01:00,
2013-05-03 16:06:00,67.2,43.3,30.25,WNW,299,4.9,7.4,42,0.00,,,0.00,ow4j130224,2013-05-03 23:06:00,
2013-05-03 16:11:00,66.7,42.8,30.25,West,266,8.4,13.9,42,0.00,,,0.00,ow4j130224,2013-05-03 23:11:00,
2013-05-03 16:16:00,67.0,42.7,30.24,WNW,294,6.6,10.6,41,0.00,,,0.00,ow4j130224,2013-05-03 23:16:00,
2013-05-03 16:21:00,67.1,42.6,30.24,WNW,297,5.9,10.8,41,0.00,,,0.00,ow4j130224,2013-05-03 23:21:00,
2013-05-03 16:26:00,67.4,42.8,30.24,West,272,10.4,17.1,41,0.00,,,0.00,ow4j130224,2013-05-03 23:26:00,
2013-05-03 16:31:00,67.2,42.6,30.24,West,281,6.5,15.5,41,0.00,,,0.00,ow4j130224,2013-05-03 23:31:00,
2013-05-03 16:36:00,65.1,40.5,30.24,West,268,7.2,16.3,40,0.00,,,0.00,ow4j130224,2013-05-03 23:36:00,
2013-05-03 16:41:00,64.8,40.0,30.24,West,261,10.9,17.3,40,0.00,,,0.00,ow4j130224,2013-05-03 23:41:00,
2013-05-03 16:46:00,64.3,39.8,30.24,WNW,292,4.6,13.9,40,0.00,,,0.00,ow4j130224,2013-05-03 23:46:00,
2013-05-03 16:51:00,65.6,41.0,30.24,West,268,7.6,16.3,41,0.00,,,0.00,ow4j130224,2013-05-03 23:51:00,
2013-05-03 16:56:00,67.8,43.1,30.24,WSW,248,8.3,13.9,41,0.00,,,0.00,ow4j130224,2013-05-03 23:56:00,
2013-05-03 17:01:00,68.2,43.9,30.24,WNW,283,4.9,8.2,41,0.00,,,0.00,ow4j130224,2013-05-04 00:01:00,
2013-05-03 17:06:00,66.5,42.4,30.24,West,266,8.0,16.4,42,0.00,,,0.00,ow4j130224,2013-05-04 00:06:00,
2013-05-03 17:11:00,66.0,41.7,30.24,West,275,7.7,13.9,41,0.00,,,0.00,ow4j130224,2013-05-04 00:11:00,
2013-05-03 17:16:00,65.2,41.1,30.23,WNW,302,7.5,13.1,41,0.00,,,0.00,ow4j130224,2013-05-04 00:16:00,
2013-05-03 17:21:00,65.6,42.2,30.23,WNW,294,6.4,11.4,42,0.00,,,0.00,ow4j130224,2013-05-04 00:21:00,
2013-05-03 17:26:00,65.1,42.3,30.23,WNW,299,5.9,9.8,43,0.00,,,0.00,ow4j130224,2013-05-04 00:26:00,
2013-05-03 17:31:00,64.7,42.3,30.23,WNW,284,7.6,13.1,44,0.00,,,0.00,ow4j130224,2013-05-04 00:31:00,
2013-05-03 17:36:00,64.6,42.3,30.23,WNW,297,5.5,9.8,44,0.00,,,0.00,ow4j130224,2013-05-04 00:36:00,
2013-05-03 17:41:00,64.9,43.0,30.23,WNW,293,4.7,8.3,45,0.00,,,0.00,ow4j130224,2013-05-04 00:41:00,
2013-05-03 17:47:00,65.3,44.0,30.23,WNW,300,3.8,9.8,46,0.00,,,0.00,ow4j130224,2013-05-04 00:47:00,
2013-05-03 17:52:00,65.1,43.8,30.23,NW,325,4.1,5.7,46,0.00,,,0.00,ow4j130224,2013-05-04 00:52:00,
2013-05-03 17:57:00,64.9,43.5,30.23,NW,314,2.4,4.9,46,0.00,,,0.00,ow4j130224,2013-05-04 00:57:00,
2013-05-03 18:02:00,65.6,44.1,30.23,North,-999,0.2,0.8,46,0.00,,,0.00,ow4j130224,2013-05-04 01:02:00,
2013-05-03 18:07:00,68.8,46.4,30.23,North,-999,0.2,1.6,45,0.00,,,0.00,ow4j130224,2013-05-04 01:07:00,
2013-05-03 18:12:00,69.8,47.3,30.22,North,-999,0.2,2.4,45,0.00,,,0.00,ow4j130224,2013-05-04 01:12:00,
2013-05-03 18:17:00,68.2,45.3,30.22,NW,316,1.6,6.5,44,0.00,,,0.00,ow4j130224,2013-05-04 01:17:00,
2013-05-03 18:22:00,67.1,43.6,30.22,WNW,301,1.3,4.9,43,0.00,,,0.00,ow4j130224,2013-05-04 01:22:00,
2013-05-03 18:27:00,66.3,42.9,30.22,WNW,285,3.0,7.4,43,0.00,,,0.00,ow4j130224,2013-05-04 01:27:00,
2013-05-03 18:32:00,66.9,43.3,30.22,WNW,301,2.0,5.7,42,0.00,,,0.00,ow4j130224,2013-05-04 01:32:00,
2013-05-03 18:37:00,67.2,43.2,30.22,West,264,3.5,8.6,42,0.00,,,0.00,ow4j130224,2013-05-04 01:37:00,
2013-05-03 18:42:00,66.6,42.6,30.22,WNW,289,4.3,9.0,42,0.00,,,0.00,ow4j130224,2013-05-04 01:42:00,
2013-05-03 18:47:00,66.3,42.1,30.22,West,259,2.0,6.5,41,0.00,,,0.00,ow4j130224,2013-05-04 01:47:00,
2013-05-03 18:52:00,66.3,43.7,30.22,SW,224,3.6,7.5,44,0.00,,,0.00,ow4j130224,2013-05-04 01:52:00,
2013-05-03 18:57:00,66.6,45.5,30.22,WSW,238,4.3,7.4,46,0.00,,,0.00,ow4j130224,2013-05-04 01:57:00,
2013-05-03 19:02:00,65.3,44.7,30.22,WSW,244,3.5,5.7,47,0.00,,,0.00,ow4j130224,2013-05-04 02:02:00,
2013-05-03 19:07:00,63.8,43.5,30.22,West,267,1.2,4.9,48,0.00,,,0.00,ow4j130224,2013-05-04 02:07:00,
2013-05-03 19:12:00,63.0,42.6,30.22,North,-999,0.2,1.6,47,0.00,,,0.00,ow4j130224,2013-05-04 02:12:00,
2013-05-03 19:17:00,62.6,42.3,30.21,West,262,1.4,3.3,47,0.00,,,0.00,ow4j130224,2013-05-04 02:17:00,
2013-05-03 19:22:00,62.2,42.3,30.21,North,-999,0.2,1.6,48,0.00,,,0.00,ow4j130224,2013-05-04 02:22:00,
2013-05-03 19:27:00,62.0,42.4,30.21,West,280,3.6,7.4,48,0.00,,,0.00,ow4j130224,2013-05-04 02:27:00,
2013-05-03 19:32:00,62.0,42.5,30.20,North,-999,0.0,0.0,49,0.00,,,0.00,ow4j130224,2013-05-04 02:32:00,
2013-05-03 19:37:00,61.5,42.4,30.20,North,-999,0.0,0.0,49,0.00,,,0.00,ow4j130224,2013-05-04 02:37:00,
2013-05-03 19:42:00,60.0,41.7,30.20,North,-999,0.0,0.0,51,0.00,,,0.00,ow4j130224,2013-05-04 02:42:00,
2013-05-03 19:47:00,59.4,42.2,30.20,North,-999,0.0,0.0,53,0.00,,,0.00,ow4j130224,2013-05-04 02:47:00,
2013-05-03 19:52:00,59.9,44.5,30.20,North,-999,0.0,0.0,57,0.00,,,0.00,ow4j130224,2013-05-04 02:52:00,
2013-05-03 19:57:00,59.5,45.9,30.20,North,-999,0.4,1.7,61,0.00,,,0.00,ow4j130224,2013-05-04 02:57:00,
2013-05-03 20:02:00,58.7,46.2,30.20,North,-999,0.2,3.3,63,0.00,,,0.00,ow4j130224,2013-05-04 03:02:00,
2013-05-03 20:07:00,57.9,46.8,30.20,SW,222,3.8,6.5,66,0.00,,,0.00,ow4j130224,2013-05-04 03:07:00,
2013-05-03 20:12:00,56.9,47.0,30.20,SW,232,4.5,8.2,69,0.00,,,0.00,ow4j130224,2013-05-04 03:12:00,
2013-05-03 20:18:00,56.0,47.1,30.20,SW,231,1.7,4.1,72,0.00,,,0.00,ow4j130224,2013-05-04 03:18:00,
2013-05-03 20:23:00,55.2,47.0,30.20,North,-999,0.0,0.0,74,0.00,,,0.00,ow4j130224,2013-05-04 03:23:00,
2013-05-03 20:28:00,54.2,46.4,30.20,SW,217,2.9,6.4,75,0.00,,,0.00,ow4j130224,2013-05-04 03:28:00,
2013-05-03 20:33:00,53.8,46.5,30.20,SW,225,2.7,4.9,76,0.00,,,0.00,ow4j130224,2013-05-04 03:33:00,
2013-05-03 20:38:00,53.5,46.8,30.20,WSW,238,1.3,3.3,78,0.00,,,0.00,ow4j130224,2013-05-04 03:38:00,
2013-05-03 20:43:00,53.1,46.6,30.20,North,-999,0.4,1.6,78,0.00,,,0.00,ow4j130224,2013-05-04 03:43:00,
2013-05-03 20:48:00,52.8,46.2,30.20,North,-999,0.0,0.8,78,0.00,,,0.00,ow4j130224,2013-05-04 03:48:00,
2013-05-03 20:53:00,52.1,45.5,30.20,North,-999,0.0,0.0,78,0.00,,,0.00,ow4j130224,2013-05-04 03:53:00,
2013-05-03 20:58:00,50.8,44.4,30.20,North,-999,0.0,0.0,79,0.00,,,0.00,ow4j130224,2013-05-04 03:58:00,
2013-05-03 21:01:00,50.4,44.1,30.20,North,-999,0.0,0.0,79,0.00,,,0.00,ow4j130224,2013-05-04 04:01:00,
2013-05-03 21:06:00,51.5,45.7,30.20,North,-999,0.0,0.0,81,0.00,,,0.00,ow4j130224,2013-05-04 04:06:00,
2013-05-03 21:11:00,53.3,47.8,30.20,North,-999,0.0,0.0,82,0.00,,,0.00,ow4j130224,2013-05-04 04:11:00,
2013-05-03 21:16:00,53.9,48.7,30.21,North,-999,0.0,0.0,83,0.00,,,0.00,ow4j130224,2013-05-04 04:16:00,
2013-05-03 21:21:00,53.4,48.4,30.21,North,-999,0.0,0.0,83,0.00,,,0.00,ow4j130224,2013-05-04 04:21:00,
2013-05-03 21:26:00,52.4,47.7,30.21,North,-999,0.0,0.0,84,0.00,,,0.00,ow4j130224,2013-05-04 04:26:00,
2013-05-03 21:31:00,51.5,47.0,30.21,North,-999,0.0,0.0,84,0.00,,,0.00,ow4j130224,2013-05-04 04:31:00,
2013-05-03 21:36:00,51.3,46.9,30.21,North,-999,0.0,0.0,85,0.00,,,0.00,ow4j130224,2013-05-04 04:36:00,
2013-05-03 21:41:00,51.3,47.0,30.21,North,-999,0.0,0.0,85,0.00,,,0.00,ow4j130224,2013-05-04 04:41:00,
2013-05-03 21:46:00,51.2,47.0,30.21,North,-999,0.0,0.0,86,0.00,,,0.00,ow4j130224,2013-05-04 04:46:00,
2013-05-03 21:51:00,50.9,46.8,30.21,North,-999,0.0,0.0,86,0.00,,,0.00,ow4j130224,2013-05-04 04:51:00,
2013-05-03 21:56:00,50.6,46.6,30.21,North,-999,0.0,0.0,86,0.00,,,0.00,ow4j130224,2013-05-04 04:56:00,
2013-05-03 22:01:00,50.8,46.7,30.21,North,-999,0.0,0.0,86,0.00,,,0.00,ow4j130224,2013-05-04 05:01:00,
2013-05-03 22:06:00,50.9,46.5,30.21,North,-999,0.0,0.0,85,0.00,,,0.00,ow4j130224,2013-05-04 05:06:00,
2013-05-03 22:11:00,50.8,46.3,30.21,North,-999,0.0,0.0,84,0.00,,,0.00,ow4j130224,2013-05-04 05:11:00,
2013-05-03 22:16:00,50.4,46.0,30.21,North,-999,0.0,0.0,85,0.00,,,0.00,ow4j130224,2013-05-04 05:16:00,
2013-05-03 22:22:00,50.1,46.0,30.21,North,-999,0.0,0.0,86,0.00,,,0.00,ow4j130224,2013-05-04 05:22:00,
2013-05-03 22:27:00,50.1,46.1,30.21,North,-999,0.2,1.6,86,0.00,,,0.00,ow4j130224,2013-05-04 05:27:00,
2013-05-03 22:32:00,50.2,45.7,30.21,North,-999,0.9,2.4,84,0.00,,,0.00,ow4j130224,2013-05-04 05:32:00,
2013-05-03 22:37:00,51.5,45.2,30.20,North,-999,0.0,0.8,79,0.00,,,0.00,ow4j130224,2013-05-04 05:37:00,
2013-05-03 22:42:00,53.3,45.9,30.20,ESE,104,3.0,4.1,76,0.00,,,0.00,ow4j130224,2013-05-04 05:42:00,
2013-05-03 22:47:00,52.8,46.6,30.20,North,-999,0.0,0.0,80,0.00,,,0.00,ow4j130224,2013-05-04 05:47:00,
2013-05-03 22:52:00,50.9,46.4,30.20,North,-999,0.0,0.0,84,0.00,,,0.00,ow4j130224,2013-05-04 05:52:00,
2013-05-03 22:57:00,50.1,46.0,30.20,North,-999,0.0,0.0,86,0.00,,,0.00,ow4j130224,2013-05-04 05:57:00,
2013-05-03 23:02:00,49.7,45.8,30.20,North,-999,0.0,0.0,86,0.00,,,0.00,ow4j130224,2013-05-04 06:02:00,
2013-05-03 23:07:00,49.4,45.7,30.20,North,-999,0.0,0.0,87,0.00,,,0.00,ow4j130224,2013-05-04 06:07:00,
2013-05-03 23:12:00,49.0,45.3,30.20,North,-999,0.0,0.0,87,0.00,,,0.00,ow4j130224,2013-05-04 06:12:00,
2013-05-03 23:17:00,48.5,45.0,30.20,North,-999,0.0,0.0,88,0.00,,,0.00,ow4j130224,2013-05-04 06:17:00,
2013-05-03 23:22:00,48.2,44.8,30.20,North,-999,0.0,0.0,88,0.00,,,0.00,ow4j130224,2013-05-04 06:22:00,
2013-05-03 23:27:00,48.3,45.1,30.20,North,-999,0.0,0.0,89,0.00,,,0.00,ow4j130224,2013-05-04 06:27:00,
2013-05-03 23:32:00,48.3,45.4,30.20,North,-999,0.0,0.0,89,0.00,,,0.00,ow4j130224,2013-05-04 06:32:00,
2013-05-03 23:37:00,47.8,45.0,30.20,North,-999,0.0,0.0,90,0.00,,,0.00,ow4j130224,2013-05-04 06:37:00,
2013-05-03 23:42:00,47.6,44.9,30.20,North,-999,0.0,0.0,90,0.00,,,0.00,ow4j130224,2013-05-04 06:42:00,
2013-05-03 23:47:00,47.8,45.1,30.20,North,-999,0.0,0.0,90,0.00,,,0.00,ow4j130224,2013-05-04 06:47:00,
2013-05-03 23:52:00,47.9,45.1,30.21,North,-999,0.0,0.0,90,0.00,,,0.00,ow4j130224,2013-05-04 06:52:00,
2013-05-03 23:57:00,48.0,45.2,30.21,North,-999,0.0,0.0,90,0.00,,,0.00,ow4j130224,2013-05-04 06:57:00,